Location: Hope
(40.9110°N, 74.9680°W)
Time: 02:00:01
(UTC-04:00)

VELOX 1 - Pass Details

Date: 29 July 2021
Orbit: 626 x 643 km, 98.3° (Epoch: 19 September)

Event Time Altitude Azimuth Distance (km) Brightness Sun altitude
Rises 03:16:28 0° 128° (SE) 2,926 ? -23.2°
Reaches altitude 10° 03:19:07 10° 112° (ESE) 2,025 ? -22.9°
Maximum altitude 03:22:18 20° 65° (ENE) 1,487 ? -22.6°
Drops below altitude 10° 03:25:30 10° 19° (NNE) 2,042 ? -22.2°
Sets 03:28:12 0° 3° (N) 2,958 ? -21.9°
